DW9170 Weather Reports


Display with metric or nautical units.
time (UTC)temp
F
wind
direction
speed
MPH
gust
MPH
rain 1hr
in
rain 24hr
in
rain mn
in
humidity
%
barometer
mb
20180719153151 69 317 3.0 6.0 0.00 0.00 0.00 42 1018.2
20180719151646 69 278 0.0 10.0 0.00 0.00 0.00 42 1018.2
20180719150135 68 280 3.0 7.0 0.00 0.00 0.00 45 1018.2
20180719144649 68 337 0.0 0.0 0.00 0.00 0.00 49 1018.1
20180719143146 67 337 0.0 0.0 0.00 0.00 0.00 48 1018.2
20180719141634 66 337 0.0 0.0 0.00 0.00 0.00 52 1018.3
20180719140150 65 337 0.0 0.0 0.00 0.00 0.00 53 1018.3
20180719134644 65 337 0.0 0.0 0.00 0.00 0.00 57 1018.2
20180719133135 63 337 0.0 0.0 0.00 0.00 0.00 58 1018.2
20180719131650 63 337 0.0 0.0 0.00 0.00 0.00 58 1018.0
20180719130138 62 337 0.0 0.0 0.00 0.00 0.00 57 1018.1
20180719124654 61 337 0.0 0.0 0.00 0.00 0.00 60 1018.1
20180719123146 60 337 0.0 0.0 0.00 0.00 0.00 60 1017.9
20180719121637 60 337 0.0 0.0 0.00 0.00 0.00 60 1018.0
20180719120155 59 337 0.0 0.0 0.00 0.00 0.00 61 1017.9
20180719114647 58 337 0.0 0.0 0.00 0.00 0.00 62 1017.8
20180719113140 57 337 0.0 0.0 0.00 0.00 0.00 64 1017.7
20180719111654 56 337 0.0 0.0 0.00 0.00 0.00 66 1017.7
20180719110143 55 337 0.0 0.0 0.00 0.00 0.00 66 1017.8
20180719104639 54 337 0.0 0.0 0.00 0.00 0.00 67 1017.8
20180719103150 54 337 0.0 0.0 0.00 0.00 0.00 67 1017.5
20180719101646 53 337 0.0 0.0 0.00 0.00 0.00 70 1017.4
20180719100139 53 337 0.0 0.0 0.00 0.00 0.00 72 1017.3
20180719094640 53 337 0.0 0.0 0.00 0.00 0.00 70 1017.3
20180719093145 53 337 0.0 0.0 0.00 0.00 0.00 72 1017.1
20180719091640 53 337 0.0 0.0 0.00 0.01 0.00 69 1017.0
20180719090146 54 337 0.0 0.0 0.00 0.01 0.00 72 1016.8
20180719084638 54 337 0.0 0.0 0.00 0.01 0.00 70 1016.7
20180719083146 54 337 0.0 0.0 0.00 0.01 0.00 73 1016.4
20180719081640 54 337 0.0 0.0 0.00 0.01 0.00 73 1016.4
20180719080137 54 337 0.0 0.0 0.00 0.01 0.00 72 1016.3
20180719074644 54 337 0.0 0.0 0.00 0.01 0.00 69 1016.2
20180719073140 55 337 0.0 0.0 0.00 0.01 0.00 71 1016.2
20180719071650 55 337 0.0 0.0 0.00 0.01 0.00 67 1016.1
20180719070141 55 337 0.0 0.0 0.00 0.01 0.00 64 1016.1
20180719064654 56 337 0.0 0.0 0.00 0.01 0.00 66 1016.0
20180719063149 56 337 0.0 0.0 0.00 0.01 0.00 71 1015.9
20180719061636 56 337 0.0 0.0 0.00 0.02 0.00 64 1015.9
20180719060153 57 337 0.0 0.0 0.00 0.02 0.00 65 1015.8
20180719054643 57 337 0.0 0.0 0.00 0.02 0.00 68 1015.7
20180719053136 57 337 0.0 0.0 0.00 0.02 0.00 66 1015.5
20180719051649 57 337 0.0 0.0 0.00 0.02 0.00 66 1015.6
20180719050140 57 337 0.0 0.0 0.00 0.02 0.00 64 1015.5
20180719044641 57 337 0.0 0.0 0.00 0.02 0.00 66 1015.4
20180719043149 57 337 0.0 0.0 0.00 0.02 0.00 71 1015.3
20180719041637 58 337 0.0 0.0 0.00 0.02 0.00 72 1015.2
20180719040154 58 337 0.0 0.0 0.00 0.02 0.00 70 1015.1
20180719034647 58 337 0.0 0.0 0.00 0.02 0.02 71 1015.0
20180719033138 59 337 0.0 0.0 0.00 0.02 0.02 68 1015.1
20180719031651 59 337 0.0 0.0 0.00 0.02 0.02 69 1014.9
20180719030140 59 337 0.0 0.0 0.00 0.02 0.02 68 1014.9
20180719024634 59 337 0.0 0.0 0.00 0.02 0.02 69 1014.8
20180719023137 60 337 0.0 0.0 0.00 0.02 0.02 66 1014.6
20180719021649 61 337 0.0 0.0 0.00 0.02 0.02 65 1014.4
20180719020145 61 337 0.0 0.0 0.00 0.02 0.02 61 1014.3
20180719014650 62 337 0.0 1.0 0.00 0.02 0.02 64 1014.2
20180719013144 63 337 0.0 0.0 0.00 0.02 0.02 61 1014.1
20180719011641 64 337 0.0 3.0 0.00 0.02 0.02 59 1013.9
20180719010147 65 338 0.0 0.0 0.00 0.02 0.02 50 1013.5
20180719004642 66 338 0.0 2.0 0.00 0.02 0.02 49 1013.2
20180719003149 67 338 1.0 2.0 0.00 0.02 0.02 52 1013.0
20180719001641 68 337 0.0 2.0 0.00 0.02 0.02 47 1013.0
20180719000138 70 338 1.0 4.0 0.00 0.02 0.02 47 1012.9
20180718234649 70 337 2.0 5.0 0.00 0.02 0.02 43 1012.8
20180718233141 71 337 3.0 5.0 0.00 0.02 0.02 40 1012.7
20180718231636 72 337 4.0 6.0 0.00 0.02 0.02 41 1012.6
20180718230149 73 333 2.0 4.0 0.00 0.02 0.02 39 1012.5
20180718224642 73 331 2.0 6.0 0.00 0.02 0.02 39 1012.4
20180718223137 73 332 2.0 9.0 0.00 0.02 0.02 40 1012.1
20180718221627 73 354 2.0 7.0 0.00 0.02 0.02 37 1011.9
20180718220136 73 357 2.0 6.0 0.00 0.02 0.02 37 1012.0
20180718214629 74 354 4.0 8.0 0.00 0.02 0.02 37 1011.9
20180718213144 73 355 3.0 7.0 0.00 0.02 0.02 36 1011.7
20180718211636 74 0 4.0 8.0 0.00 0.02 0.02 38 1011.7
20180718210143 73 349 4.0 7.0 0.00 0.02 0.02 39 1011.8
20180718204641 74 0 3.0 8.0 0.00 0.02 0.02 37 1011.8
20180718203132 73 316 2.0 8.0 0.00 0.02 0.02 39 1011.7
20180718201646 73 358 2.0 7.0 0.00 0.02 0.02 42 1011.8
20180718200123 72 357 4.0 8.0 0.00 0.02 0.02 40 1011.8
20180718194648 72 31 2.0 5.0 0.00 0.02 0.02 40 1011.8
20180718193141 72 356 2.0 5.0 0.00 0.02 0.02 41 1011.8
20180718191653 72 0 2.0 9.0 0.00 0.02 0.02 40 1011.7
20180718190142 72 351 6.0 10.0 0.00 0.02 0.02 38 1011.8
20180718184633 72 346 5.0 10.0 0.00 0.02 0.02 42 1011.7
20180718183134 73 311 6.0 11.0 0.00 0.02 0.02 42 1011.6
20180718181644 72 357 3.0 11.0 0.00 0.02 0.02 42 1011.6
20180718180140 72 342 5.0 12.0 0.00 0.02 0.02 44 1011.4
20180718174641 73 346 3.0 12.0 0.00 0.02 0.02 44 1011.4
20180718173135 71 358 3.0 13.0 0.00 0.02 0.02 47 1011.2
20180718171653 71 344 10.0 16.0 0.00 0.02 0.02 48 1011.6
20180718170141 70 348 3.0 6.0 0.00 0.02 0.02 49 1011.4
20180718164638 70 346 8.0 12.0 0.00 0.02 0.02 48 1011.6
20180718163145 69 0 3.0 10.0 0.00 0.02 0.02 49 1011.6
20180718161636 69 333 4.0 13.0 0.00 0.02 0.02 51 1011.7
20180718160149 68 348 3.0 6.0 0.00 0.02 0.02 51 1011.7
20180718154638 68 8 3.0 12.0 0.00 0.02 0.02 54 1011.7